EST,Max TemperatureF,Mean TemperatureF,Min TemperatureF,Max Dew PointF,MeanDew PointF,Min DewpointF,Max Humidity, Mean Humidity, Min Humidity, Max Sea Level PressureIn, Mean Sea Level PressureIn, Min Sea Level PressureIn, Max VisibilityMiles, Mean VisibilityMiles, Min VisibilityMiles, Max Wind SpeedMPH, Mean Wind SpeedMPH, Max Gust SpeedMPH,PrecipitationIn, CloudCover, Events, WindDirDegrees
2014-1-1,20,9,-2,7,3,-3,95,72,49,30.39,30.32,30.17,10,9,5,17,3,22,0.00,3,,291
2014-1-2,13,8,3,5,0,-2,87,77,67,30.38,30.18,29.91,10,2,0,10,4,16,0.29,8,Fog-Snow,38
2014-1-3,4,-5,-15,-2,-9,-19,87,68,49,30.44,30.06,29.85,10,6,1,21,7,25,0.04,5,Snow,312
2014-1-4,16,-1,-18,4,-8,-21,95,74,53,30.49,30.37,30.27,10,9,6,8,1,10,0.00,0,,276
2014-1-5,31,13,-6,27,14,-9,100,75,49,30.37,30.17,29.90,10,6,1,5,0,5,0.05,4,Rain,48
2014-1-6,44,33,21,38,28,6,100,82,64,29.88,29.54,29.31,10,3,0,22,7,33,0.91,8,Fog-Rain-Snow,292
2014-1-7,21,10,-2,6,-10,-15,66,54,41,30.16,29.92,29.55,10,10,8,23,10,34,0.00,3,,259
2014-1-8,19,9,-2,1,-3,-10,95,69,43,30.45,30.37,30.19,10,10,8,15,3,21,0.00,2,,300
2014-1-9,25,12,-2,8,0,-5,91,66,40,30.65,30.56,30.42,10,10,8,17,3,27,0.00,3,,287
2014-1-10,28,13,-2,22,13,-5,91,83,75,30.58,30.41,30.26,10,7,2,6,0,6,T,7,Snow,-1
2014-1-11,46,36,25,40,32,23,100,92,84,30.23,29.63,29.21,10,2,0,17,1,20,0.68,8,Fog-Rain,328
2014-1-12,47,41,35,37,26,21,82,67,51,29.97,29.64,29.30,10,10,10,21,10,32,0.00,6,,276
2014-1-13,43,34,24,31,26,22,92,72,51,30.07,29.98,29.84,10,10,10,12,4,18,0.00,1,,166
2014-1-14,39,36,33,37,34,31,100,95,89,29.83,29.73,29.67,10,3,0,10,1,16,0.21,7,Fog-Rain,322
2014-1-15,43,35,26,36,30,25,100,81,62,29.99,29.90,29.77,10,4,0,9,2,12,0.00,4,Fog,17
2014-1-16,33,32,30,32,29,27,100,88,75,29.95,29.90,29.86,10,5,1,7,1,11,0.02,8,Rain-Snow,55
2014-1-17,36,30,23,29,25,21,100,85,70,29.95,29.91,29.88,10,4,0,12,2,15,T,5,Fog-Snow,168
2014-1-18,35,28,20,31,24,18,100,88,75,29.92,29.78,29.65,10,3,0,6,0,9,0.07,7,Fog-Snow,335
2014-1-19,31,28,24,27,20,15,92,73,53,29.73,29.61,29.49,10,7,1,16,7,26,0.01,8,Snow,210
2014-1-20,34,21,8,26,16,-2,78,71,63,29.93,29.61,29.48,10,9,2,16,7,23,T,7,Snow,250
2014-1-21,9,6,2,-4,-9,-11,69,57,45,30.10,30.05,29.95,10,10,10,13,6,21,0.00,3,,355
2014-1-22,12,3,-6,-9,-13,-17,59,49,38,29.97,29.91,29.78,10,10,10,16,8,27,0.00,0,,341
2014-1-23,14,3,-9,-4,-9,-13,83,60,36,30.17,30.08,29.98,10,10,9,14,4,20,0.00,3,,332
2014-1-24,13,6,-1,-2,-8,-12,79,57,34,30.28,30.17,29.95,10,10,10,16,5,23,0.00,1,,284
2014-1-25,22,15,8,17,10,-3,92,71,49,29.91,29.53,29.33,10,5,0,13,4,18,0.01,7,Snow,184
2014-1-26,21,14,7,14,-3,-16,88,59,29,29.82,29.68,29.34,10,9,4,23,9,32,T,4,Snow,254
2014-1-27,32,22,11,25,10,-7,75,52,29,30.02,29.69,29.49,10,8,2,22,7,37,T,6,Snow,287
2014-1-28,14,8,2,2,-6,-12,72,53,34,30.28,30.19,30.04,10,9,1,17,6,27,T,2,Snow,258
2014-1-29,19,8,-4,-3,-7,-11,87,56,25,30.21,30.11,29.96,10,10,7,21,5,28,0.00,1,,243
2014-1-30,25,11,-3,5,1,-6,86,63,40,30.42,30.29,30.12,10,10,6,13,4,18,0.00,0,,157
2014-1-31,36,24,11,18,12,5,84,64,44,30.20,30.08,30.01,10,10,9,14,3,21,0.00,2,,235